This is the latest recevied weather packets stored in our database for station/object K1RFS. If no packets are shown the sender has not sent any weather packets the latest 10 day(s).
| Time | Temp. | Humidity | Pressure | Rain* | Wind** | Luminosity | Snow |
|---|---|---|---|---|---|---|---|
| 1787505816 | 28.33° C | 43% | 1007.6 hPa | 0 mm | - | 43 W/m² | - |
| 1787505510 | 28.33° C | 44% | 1007.4 hPa | 0 mm | - | 42 W/m² | - |
| 1787505206 | 28.33° C | 44% | 1007.3 hPa | 0 mm | - | 40 W/m² | - |
| 1787504905 | 27.78° C | 43% | 1007.6 hPa | 0 mm | - | 40 W/m² | - |
| 1787504601 | 27.78° C | 43% | 1007.4 hPa | 0 mm | - | 39 W/m² | - |
| 1787504297 | 28.33° C | 43% | 1007.6 hPa | 0 mm | - | 39 W/m² | - |
| 1787503992 | 27.78° C | 43% | 1007.6 hPa | 0 mm | - | 39 W/m² | - |
| 1787503692 | 27.78° C | 42% | 1007.4 hPa | 0 mm | - | 39 W/m² | - |
| 1787503389 | 27.22° C | 43% | 1007.6 hPa | 0 mm | - | 39 W/m² | - |
| 1787503084 | 27.22° C | 41% | 1007.6 hPa | 0 mm | - | 39 W/m² | - |
| 1787502780 | 27.22° C | 42% | 1007.6 hPa | 0 mm | - | 38 W/m² | - |
| 1787502475 | 27.22° C | 43% | 1007.3 hPa | 0 mm | - | 37 W/m² | - |
| 1787502174 | 26.67° C | 44% | 1007.4 hPa | 0 mm | - | 37 W/m² | - |
| 1787501870 | 26.67° C | 43% | 1007.6 hPa | 0 mm | - | 36 W/m² | - |
| 1787501566 | 26.67° C | 45% | 1007.6 hPa | 0 mm | - | 36 W/m² | - |
| 1787501262 | 26.11° C | 44% | 1007.6 hPa | 0 mm | - | 36 W/m² | - |
| 1787500958 | 26.11° C | 43% | 1007.7 hPa | 0 mm | - | 34 W/m² | - |
| 1787500653 | 26.11° C | 48% | 1007.6 hPa | 0 mm | - | 36 W/m² | - |
| 1787500349 | 25.56° C | 49% | 1007.7 hPa | 0 mm | - | 35 W/m² | - |
| 1787500048 | 25.56° C | 50% | 1007.3 hPa | 0 mm | - | 34 W/m² | - |
| 1787499748 | 25° C | 49% | 1007.6 hPa | 0 mm | - | 33 W/m² | - |
| 1787499443 | 25° C | 49% | 1007.4 hPa | 0 mm | - | 32 W/m² | - |
| 1787499139 | 23.89° C | 51% | 1007.4 hPa | 0 mm | - | 31 W/m² | - |
| 1787498836 | 23.89° C | 55% | 1007.6 hPa | 0 mm | - | 31 W/m² | - |
| 1787498533 | 23.33° C | 55% | 1007.7 hPa | 0 mm | - | 30 W/m² | - |
* Rain latest hour (hover to see other rain measurements)
** Current wind speed in m/s (hover to see current wind gust speed)